EN

Hourly Weather Pervomaevka

Today, 16 January, Saturday

Time Temperature Precipitation Wind Pressure Humidity
00:00 +8°C° 0 mm 3 mps 686 mmHg 35%
01:00 +8°C° 0 mm 3 mps 686 mmHg 34%
02:00 +8°C° 0 mm 3 mps 686 mmHg 33%
03:00 +8°C° 0 mm 3 mps 686 mmHg 33%
04:00 +8°C° 0 mm 3 mps 685 mmHg 32%
05:00 +7°C° 0 mm 3 mps 685 mmHg 33%
06:00 +8°C° 0 mm 3 mps 685 mmHg 32%
07:00 +8°C° 0 mm 3 mps 686 mmHg 32%
08:00 +7°C° 0 mm 4 mps 686 mmHg 31%
09:00 +9°C° 0 mm 3 mps 686 mmHg 36%
10:00 +10°C° 0 mm 3 mps 686 mmHg 40%
11:00 +11°C° 0 mm 3 mps 686 mmHg 46%
12:00 +12°C° 0 mm 3 mps 686 mmHg 47%
13:00 +13°C° 0 mm 2 mps 686 mmHg 49%
14:00 +14°C° 0 mm 2 mps 686 mmHg 50%
15:00 +12°C° 0 mm 2 mps 686 mmHg 46%
16:00 +10°C° 0 mm 2 mps 686 mmHg 42%
17:00 +9°C° 0 mm 2 mps 686 mmHg 39%
18:00 +8°C° 0 mm 2 mps 687 mmHg 38%
19:00 +8°C° 0 mm 2 mps 687 mmHg 37%
20:00 +7°C° 0 mm 2 mps 687 mmHg 36%
21:00 +7°C° 0 mm 2 mps 687 mmHg 36%
22:00 +6°C° 0 mm 2 mps 687 mmHg 36%
23:00 +6°C° 0 mm 2 mps 687 mmHg 36%

Tomorrow, 17 January, Sunday

Time Temperature Precipitation Wind Pressure Humidity
00:00 +6°C° 0 mm 2 mps 687 mmHg 36%
01:00 +5°C° 0 mm 2 mps 687 mmHg 36%
02:00 +5°C° 0 mm 2 mps 687 mmHg 36%
03:00 +5°C° 0 mm 2 mps 688 mmHg 35%
04:00 +5°C° 0 mm 2 mps 688 mmHg 34%
05:00 +5°C° 0 mm 2 mps 688 mmHg 34%
06:00 +5°C° 0 mm 2 mps 688 mmHg 33%
07:00 +4°C° 0 mm 2 mps 687 mmHg 33%
08:00 +4°C° 0 mm 2 mps 687 mmHg 33%
09:00 +7°C° 0 mm 1 mps 687 mmHg 37%
10:00 +8°C° 0 mm 1 mps 687 mmHg 41%
11:00 +10°C° 0 mm 1 mps 687 mmHg 45%
12:00 +10°C° 0 mm 1 mps 687 mmHg 47%
13:00 +10°C° 0 mm 1 mps 686 mmHg 48%
14:00 +11°C° 0 mm 1 mps 685 mmHg 50%
15:00 +10°C° 0 mm 1 mps 685 mmHg 49%
16:00 +9°C° 0 mm 1 mps 684 mmHg 48%
17:00 +8°C° 0 mm 1 mps 684 mmHg 46%
18:00 +7°C° 0 mm 1 mps 683 mmHg 44%
19:00 +7°C° 0 mm 1 mps 683 mmHg 42%
20:00 +5°C° 0 mm 2 mps 683 mmHg 40%
21:00 +5°C° 0 mm 2 mps 683 mmHg 38%
22:00 +5°C° 0 mm 2 mps 683 mmHg 36%
23:00 +5°C° 0 mm 2 mps 682 mmHg 34%

Day after tomorrow, 18 January, Monday

Time Temperature Precipitation Wind Pressure Humidity
00:00 +5°C° 0 mm 2 mps 682 mmHg 33%
01:00 +5°C° 0 mm 2 mps 682 mmHg 31%
02:00 +5°C° 0 mm 2 mps 682 mmHg 30%
03:00 +5°C° 0 mm 2 mps 682 mmHg 30%
04:00 +5°C° 0 mm 2 mps 682 mmHg 30%
05:00 +5°C° 0 mm 2 mps 681 mmHg 30%
06:00 +5°C° 0 mm 2 mps 681 mmHg 30%
07:00 +5°C° 0 mm 2 mps 682 mmHg 30%
08:00 +5°C° 0 mm 2 mps 682 mmHg 30%
09:00 +6°C° 0 mm 2 mps 682 mmHg 34%
10:00 +7°C° 0 mm 2 mps 682 mmHg 38%
11:00 +8°C° 0 mm 2 mps 683 mmHg 41%
12:00 +9°C° 0 mm 2 mps 683 mmHg 42%
13:00 +10°C° 0 mm 2 mps 683 mmHg 43%
14:00 +11°C° 0 mm 1 mps 683 mmHg 44%
15:00 +10°C° 0 mm 2 mps 683 mmHg 43%
16:00 +9°C° 0 mm 2 mps 683 mmHg 41%
17:00 +8°C° 0 mm 2 mps 683 mmHg 40%
18:00 +8°C° 0 mm 2 mps 683 mmHg 45%
19:00 +7°C° 0 mm 3 mps 683 mmHg 49%
20:00 +7°C° 0 mm 3 mps 683 mmHg 54%
21:00 +7°C° 0 mm 3 mps 683 mmHg 53%
22:00 +5°C° 0 mm 3 mps 683 mmHg 52%
23:00 +5°C° 0 mm 4 mps 683 mmHg 51%

19 January, Tuesday

Time Temperature Precipitation Wind Pressure Humidity
00:00 +5°C° 0.1 mm 4 mps 683 mmHg 56%
01:00 +5°C° 0.1 mm 4 mps 683 mmHg 62%
02:00 +5°C° 0.1 mm 4 mps 683 mmHg 68%
03:00 +5°C° 0 mm 4 mps 683 mmHg 67%
04:00 +5°C° 0 mm 4 mps 683 mmHg 67%
05:00 +5°C° 0 mm 3 mps 683 mmHg 66%
06:00 +5°C° 0 mm 3 mps 684 mmHg 66%
07:00 +5°C° 0 mm 3 mps 684 mmHg 65%
08:00 +4°C° 0 mm 3 mps 685 mmHg 65%
09:00 +5°C° 0 mm 4 mps 685 mmHg 63%
10:00 +6°C° 0 mm 4 mps 686 mmHg 61%
11:00 +7°C° 0 mm 4 mps 686 mmHg 60%
12:00 +8°C° 0 mm 4 mps 687 mmHg 58%
13:00 +10°C° 0 mm 4 mps 687 mmHg 56%
14:00 +9°C° 0 mm 5 mps 687 mmHg 55%
15:00 +8°C° 0 mm 5 mps 687 mmHg 59%
16:00 +7°C° 0 mm 5 mps 687 mmHg 62%
17:00 +6°C° 0 mm 5 mps 687 mmHg 66%
18:00 +6°C° 0.1 mm 4 mps 687 mmHg 70%
19:00 +6°C° 0.1 mm 4 mps 688 mmHg 73%
20:00 +5°C° 0.1 mm 3 mps 688 mmHg 76%
21:00 +5°C° 0.7 mm 4 mps 688 mmHg 80%
22:00 +5°C° 0.7 mm 4 mps 688 mmHg 84%
23:00 +3°C° 0.7 mm 5 mps 689 mmHg 88%

20 January, Wednesday

Time Temperature Precipitation Wind Pressure Humidity
00:00 +4°C° 0 mm 4 mps 689 mmHg 81%
01:00 +4°C° 0 mm 4 mps 689 mmHg 74%
02:00 +4°C° 0 mm 3 mps 689 mmHg 68%
03:00 +4°C° 0 mm 3 mps 689 mmHg 66%
04:00 +4°C° 0 mm 3 mps 689 mmHg 64%
05:00 +3°C° 0 mm 3 mps 689 mmHg 62%
06:00 +3°C° 0 mm 3 mps 689 mmHg 61%
07:00 +3°C° 0 mm 3 mps 689 mmHg 60%
08:00 +3°C° 0 mm 3 mps 689 mmHg 59%
09:00 +4°C° 0 mm 3 mps 689 mmHg 58%
10:00 +5°C° 0 mm 3 mps 688 mmHg 56%
11:00 +7°C° 0 mm 3 mps 688 mmHg 55%
12:00 +8°C° 0 mm 2 mps 688 mmHg 54%
13:00 +9°C° 0 mm 2 mps 687 mmHg 52%
14:00 +10°C° 0 mm 2 mps 686 mmHg 51%
15:00 +9°C° 0 mm 2 mps 686 mmHg 49%
16:00 +8°C° 0 mm 2 mps 685 mmHg 47%
17:00 +7°C° 0 mm 2 mps 685 mmHg 46%
18:00 +5°C° 0 mm 3 mps 685 mmHg 43%
19:00 +5°C° 0 mm 3 mps 685 mmHg 40%
20:00 +4°C° 0 mm 3 mps 685 mmHg 37%
21:00 +5°C° 0 mm 4 mps 684 mmHg 37%
22:00 +5°C° 0 mm 4 mps 684 mmHg 36%
23:00 +5°C° 0 mm 4 mps 684 mmHg 35%

21 January, Thursday

Time Temperature Precipitation Wind Pressure Humidity
00:00 +5°C° 0 mm 4 mps 684 mmHg 35%
01:00 +5°C° 0 mm 4 mps 684 mmHg 35%
02:00 +5°C° 0 mm 4 mps 684 mmHg 34%
03:00 +4°C° 0 mm 4 mps 684 mmHg 37%
04:00 +4°C° 0 mm 4 mps 684 mmHg 39%
05:00 +3°C° 0 mm 4 mps 684 mmHg 41%
06:00 +3°C° 0 mm 3 mps 685 mmHg 44%
07:00 +3°C° 0 mm 3 mps 685 mmHg 48%
08:00 +4°C° 0 mm 2 mps 685 mmHg 52%
09:00 +4°C° 0 mm 2 mps 685 mmHg 56%
10:00 +5°C° 0 mm 2 mps 685 mmHg 61%
11:00 +6°C° 0 mm 2 mps 686 mmHg 66%
12:00 +7°C° 0 mm 1 mps 685 mmHg 68%
13:00 +7°C° 0 mm 1 mps 685 mmHg 70%
14:00 +7°C° 0 mm 1 mps 685 mmHg 72%
15:00 +6°C° 0 mm 1 mps 685 mmHg 75%
16:00 +5°C° 0 mm 1 mps 685 mmHg 78%
17:00 +4°C° 0 mm 2 mps 685 mmHg 81%
18:00 +4°C° 0.1 mm 1 mps 685 mmHg 84%
19:00 +4°C° 0.1 mm 1 mps 685 mmHg 87%
20:00 +4°C° 0.1 mm 1 mps 685 mmHg 90%
21:00 +3°C° 1 mm 1 mps 685 mmHg 93%
22:00 +3°C° 1 mm 1 mps 685 mmHg 95%
23:00 +2°C° 1 mm 1 mps 686 mmHg 97%
Show more

We Need Your Consent

Meteoprog and our Service Providers may store and access personal data such as cookies, device identifiers or other similar technologies on your device and process such data to personalise content and ads, as well as provide social media features and to analyse the traffic.

  • Store and/or access information on your device

    Cookies, device identifiers or other information can be stored or accessed on your device for the purposes indicated above.

  • Personalised ads and content, ad and content measurement, audience insights, and products development

    Ads and content can be personalised based on a profile. More data can be added to better personalise ads and content. Ad and content performance can be measured. Insights about the audience who saw the ads and content can be derived. Such data can be used to develop or improve user’s experience, systems and software.

By clicking ‘I Agree’ you will allow the use of indicated cookies, device identifiers, web beacons or other similar technologies. Your settings can be changed in the browser on your device.

For certain purposes, legitimate interests may be relied on, rather than consent. You can read more about this in our Privacy and Cookie Policy.